GFSGL_con_lsi_150.txt.gz
Lid_Strength_Index
9 9 9 9 8 9 8 7 8 6 4 4 3 2 1 1 1 1 1 1 2 2 1 1 2 1 2 2 1 2 2 2 4 3 2 1 2 1 1 1 1 3 5
9 9 9 9 10 10 9 8 8 8 6 5 5 4 3 2 2 1 2 2 2 2 2 2 2 1 2 2 2 2 2 2 3 4 3 3 2 1 3 3 3 2 2
10 10 10 10 11 11 10 9 8 8 8 7 6 5 4 3 3 5 5 5 4 4 4 3 2 2 2 2 2 2 2 2 2 3 3 6 6 6 7 6 5 6 6
10 11 11 11 11 11 11 10 9 9 9 8 7 6 5 7 7 7 7 7 7 6 4 3 3 2 2 2 2 2 2 2 2 3 3 7 8 8 7 8 9 10 8
11 11 12 11 11 11 11 11 11 10 10 9 8 8 7 9 10 10 9 9 8 7 6 5 4 4 7 7 2 2 2 3 3 4 4 10 10 12 9 9 7 11 13
10 11 11 11 11 11 11 11 11 11 11 10 10 10 9 10 12 11 11 10 9 8 7 6 4 5 6 8 9 10 7 3 3 4 5 8 8 8 9 9 10 14 13
11 11 11 11 11 12 11 12 12 11 10 11 11 10 11 10 12 12 12 11 9 8 8 7 7 6 7 7 9 11 10 11 11 3 4 6 7 7 7 10 11 12 12
11 12 11 11 12 12 12 12 11 12 12 11 11 11 11 11 12 12 13 12 10 9 9 9 9 9 10 10 10 11 10 7 5 6 3 2 3 5 5 6 8 14 16
11 12 12 11 12 12 13 13 12 12 12 12 12 12 12 12 13 13 13 13 12 12 11 11 11 11 11 11 12 12 13 11 10 10 9 9 9 9 7 10 13 13 16
11 11 11 12 12 12 13 13 13 13 13 13 13 13 13 14 13 14 14 13 14 13 12 12 12 12 12 12 13 12 12 11 9 9 11 10 8 9 11 7 10 11 16
11 11 11 11 11 12 13 12 13 13 14 14 14 14 14 14 14 14 15 15 15 14 14 14 12 12 12 12 12 12 12 10 11 11 10 9 12 9 9 8 9 9 14
11 11 11 11 11 11 12 12 12 13 14 14 15 15 15 15 14 15 16 16 16 16 15 14 13 13 13 13 13 12 12 12 12 11 10 12 12 11 10 11 13 12 13
12 12 12 11 12 11 12 12 12 13 14 15 15 16 16 15 15 16 16 16 16 17 15 15 14 14 13 13 12 13 13 12 12 11 10 10 11 10 13 15 15 16 15
12 13 12 12 12 12 12 12 13 13 14 14 15 16 16 16 16 16 16 16 16 16 17 16 16 15 13 13 13 13 13 13 13 12 11 13 14 14 13 14 14 15 15
13 13 13 12 12 13 12 12 13 12 13 14 14 15 16 17 17 15 15 16 16 15 15 16 15 14 14 14 14 14 14 14 14 14 14 14 14 15 15 14 15 15 16
13 13 13 13 13 13 13 13 11 11 12 12 12 13 15 15 14 14 14 14 14 14 15 15 15 15 15 15 16 16 15 15 15 15 15 14 14 14 15 15 14 14 16
14 13 12 13 13 13 13 13 14 13 12 12 13 13 14 14 14 14 14 14 14 14 16 17 16 16 16 16 16 17 17 16 16 16 16 15 15 16 16 16 17 16 17
13 12 12 13 13 13 13 13 13 14 15 14 13 14 15 14 14 14 14 15 17 16 16 16 16 17 17 17 17 17 17 16 16 16 16 16 16 16 17 17 17 17 18
13 12 12 12 12 13 13 13 14 14 14 15 15 15 16 14 14 15 15 18 18 18 17 17 16 16 16 16 16 16 16 17 17 17 16 16 16 16 17 18 17 18 18
13 12 13 13 12 13 13 14 14 14 14 15 15 16 16 16 18 17 17 18 19 18 18 18 17 17 16 16 16 16 16 16 16 17 17 17 16 16 17 17 17 18 18
13 13 13 13 13 13 14 14 14 15 15 15 15 15 17 17 18 18 18 18 18 19 18 18 18 18 17 17 16 16 16 17 16 16 16 16 16 16 16 16 16 17 18
13 13 13 13 13 14 14 13 14 15 15 15 15 15 16 16 17 18 18 18 18 18 18 18 19 19 18 18 17 17 17 17 16 16 15 15 16 16 16 17 17 17 18
13 14 14 14 13 14 13 14 14 14 15 15 15 16 16 17 18 18 18 19 18 19 18 19 19 19 19 18 17 17 17 17 16 15 16 16 16 15 16 16 16 17 17
13 14 14 14 14 14 14 14 14 15 15 15 16 16 17 17 18 18 19 19 19 18 19 19 20 20 20 19 19 18 17 17 17 17 16 16 16 16 15 16 16 17 17
13 13 14 14 14 15 14 15 15 15 15 15 16 16 17 17 18 19 19 19 19 19 20 21 21 21 21 20 20 19 19 18 17 17 17 17 18 17 17 17 17 17 17
12 13 14 14 14 14 14 15 15 15 15 16 16 17 17 18 19 19 19 20 20 20 21 21 21 21 21 20 20 19 18 18 18 18 18 18 18 18 18 17 18 17 18

GFSGL_con_lsi_153.txt.gz
Lid_Strength_Index
9 8 9 8 8 8 8 9 8 7 6 6 6 5 4 2 2 3 3 3 3 3 2 2 2 1 2 2 1 2 2 2 4 3 2 1 1 1 2 2 2 2 4
9 9 10 10 9 9 9 9 9 9 7 6 6 6 5 5 6 4 2 3 3 3 2 2 2 2 2 2 2 2 2 2 3 4 3 3 2 2 2 3 2 2 2
9 9 10 11 10 10 10 11 10 9 8 7 7 7 8 8 9 8 9 8 6 5 4 4 3 3 2 2 2 2 2 2 2 3 4 4 3 3 3 5 3 3 4
9 10 10 11 11 11 11 10 10 10 9 8 8 8 8 10 11 11 11 11 10 9 7 6 5 4 4 3 3 2 2 3 3 3 3 6 7 8 3 4 6 7 7
10 11 11 10 10 11 11 11 11 10 10 9 9 9 10 11 13 12 12 12 11 10 8 6 5 7 9 9 8 8 8 4 3 4 4 8 9 10 7 5 4 8 10
11 11 10 10 10 10 11 11 11 11 10 10 10 11 10 12 13 14 13 13 11 9 9 8 7 8 9 11 11 12 11 8 7 4 4 9 7 8 7 9 7 13 10
11 11 11 11 11 11 11 11 12 12 12 12 12 12 11 13 13 13 13 13 11 11 11 10 10 9 10 10 11 12 11 12 13 7 6 6 6 7 6 8 11 9 8
11 11 11 12 12 12 12 12 13 13 13 13 13 12 13 13 14 14 14 13 13 13 12 12 12 12 12 12 13 13 13 11 10 8 7 4 3 5 5 6 7 11 15
12 12 12 11 12 12 13 13 14 14 14 14 13 13 14 14 14 15 16 16 15 16 13 13 13 13 13 13 14 14 13 13 12 11 10 10 10 10 7 10 13 13 16
12 12 12 11 12 12 13 14 13 14 14 14 15 15 15 15 14 15 16 16 18 17 15 14 14 14 14 14 14 14 14 13 13 13 12 11 10 9 11 5 9 10 15
12 12 12 11 12 12 12 12 13 13 14 15 15 15 16 16 16 15 16 17 18 17 17 17 15 14 14 14 13 14 14 12 13 13 12 11 10 10 10 7 6 6 12
12 12 12 12 12 12 13 13 13 13 15 15 15 15 15 16 16 16 16 16 16 18 18 18 17 15 14 13 13 13 13 13 12 13 12 11 10 10 9 9 11 11 11
13 13 13 12 12 12 13 13 14 13 15 15 15 16 17 16 16 16 16 16 16 17 17 16 16 15 14 14 13 13 13 13 13 13 13 12 10 8 12 14 14 15 15
14 15 14 14 13 13 13 13 14 14 15 15 15 16 17 17 17 16 15 16 16 16 17 17 18 17 15 15 15 15 15 14 15 15 14 13 12 13 12 13 14 14 15
14 15 15 14 16 15 15 14 13 14 13 14 15 15 17 18 16 14 15 16 16 15 15 16 18 17 18 18 17 17 17 17 16 16 15 15 13 13 13 13 14 13 14
15 15 14 13 15 15 15 15 13 12 12 12 12 14 16 14 14 14 14 15 15 15 17 18 18 17 18 18 18 18 17 18 17 17 16 16 15 14 13 13 13 13 15
16 15 13 15 15 14 15 15 16 15 12 12 12 14 14 14 14 14 15 15 15 16 19 19 19 18 18 18 18 18 18 18 18 17 17 16 16 15 14 14 13 13 15
17 15 14 15 14 15 15 17 17 18 16 18 15 14 14 14 14 15 15 17 20 19 19 20 19 19 18 17 17 18 18 18 17 17 17 16 16 16 16 16 15 14 15
17 14 14 15 14 17 15 16 16 18 16 20 21 18 18 15 15 16 16 19 20 20 20 20 19 19 18 18 17 18 19 18 18 17 17 17 16 16 16 16 16 16 16
16 14 16 15 14 17 17 17 16 19 18 19 18 18 18 19 19 19 19 19 20 20 20 20 20 20 19 18 18 17 17 19 18 17 17 17 16 16 17 17 16 16 16
14 15 16 14 15 15 15 16 16 21 20 17 20 20 18 21 20 19 20 20 20 20 20 20 20 20 20 19 19 18 18 19 19 17 16 16 16 16 16 16 16 16 16
14 15 15 15 15 15 15 15 16 19 21 19 20 21 21 22 21 20 20 20 20 20 20 21 21 20 20 20 19 19 19 19 18 17 18 17 16 16 15 15 15 15 16
15 16 16 15 15 16 15 15 15 16 18 19 20 19 22 19 20 20 21 20 20 20 21 21 21 21 21 20 19 19 19 18 18 17 17 17 17 16 16 16 15 15 15
14 15 15 15 15 15 15 16 15 16 16 17 20 21 19 20 20 21 21 21 21 21 21 21 22 22 21 21 19 19 18 18 17 17 17 17 17 17 16 16 16 16 16
13 16 17 15 15 16 15 15 15 16 16 17 17 18 19 21 22 21 21 21 21 22 22 22 21 21 21 21 20 20 19 18 18 18 17 17 17 17 17 17 17 17 17
13 16 16 15 15 15 15 16 16 16 16 17 18 18 19 19 20 21 21 22 21 22 22 22 22 22 21 20 20 19 20 19 19 18 18 18 18 18 18 18 18 18 18

GFSGL_con_lsi_159.txt.gz
Lid_Strength_Index
11 10 10 9 8 9 9 9 9 9 9 9 8 8 7 7 7 8 8 7 8 6 2 2 2 2 2 2 2 2 3 3 5 4 3 2 2 1 1 1 1 1 3
10 10 10 9 10 10 10 9 9 9 9 9 9 9 8 9 9 10 10 8 8 7 4 2 3 2 2 2 2 3 3 2 3 5 4 4 3 2 2 1 1 1 1
10 10 10 10 11 11 10 9 10 9 9 10 9 10 9 10 11 11 11 9 9 9 7 6 6 3 3 3 3 3 3 2 2 3 4 4 3 4 4 3 2 1 1
11 11 11 11 11 11 10 11 10 10 10 10 10 10 10 11 11 12 12 12 11 11 9 10 10 11 11 8 8 7 6 3 3 3 4 6 5 5 4 4 5 4 2
11 12 12 11 11 11 11 11 10 10 11 10 11 12 11 11 12 13 13 13 13 13 13 11 11 11 12 13 11 12 10 7 6 4 4 9 9 10 6 5 3 5 6
12 12 12 11 11 11 11 11 11 11 12 12 12 12 13 13 12 13 13 14 14 14 14 14 11 13 14 14 14 14 14 12 9 8 7 10 7 7 7 7 8 11 10
12 12 12 12 11 12 11 12 12 12 12 13 13 13 14 14 13 13 13 14 15 16 16 15 13 14 15 15 15 15 14 13 15 12 10 9 9 8 8 9 9 9 8
13 13 13 12 11 12 12 13 12 12 13 14 14 14 14 14 13 13 13 14 15 16 16 16 15 15 15 15 16 16 15 14 13 12 12 12 11 11 12 10 9 11 14
14 13 13 13 12 12 13 13 13 13 13 14 13 14 15 15 14 13 14 15 16 16 16 16 16 17 16 15 15 16 15 15 14 13 12 12 12 12 12 12 13 12 13
14 13 13 13 13 13 13 13 13 13 13 13 13 13 13 15 15 13 14 16 17 17 16 17 16 17 15 15 16 16 16 15 14 14 14 13 13 12 12 11 10 10 13
14 13 13 13 13 13 13 13 13 13 13 13 13 14 14 14 15 14 14 16 17 18 17 17 16 15 16 15 15 16 16 15 15 15 14 14 14 13 12 12 11 11 11
14 14 14 14 13 13 14 13 13 14 14 14 14 15 15 15 14 13 13 14 15 17 18 17 16 16 17 17 17 17 16 17 17 16 16 16 15 14 14 13 12 12 10
14 15 15 14 14 14 14 14 14 14 15 15 16 17 17 15 15 14 14 14 14 17 17 16 16 16 17 18 17 17 18 19 19 19 18 18 18 16 14 13 12 13 13
14 17 16 17 14 16 16 15 15 15 15 15 17 18 17 16 16 15 15 16 15 16 17 18 18 17 17 19 19 19 18 18 19 20 19 18 17 17 16 14 13 13 13
15 17 17 17 17 18 16 18 17 17 14 15 16 17 17 17 16 14 15 16 17 17 19 19 19 20 20 20 20 19 19 19 20 20 19 19 19 18 17 16 14 13 14
16 16 17 16 17 18 18 17 14 13 13 13 13 15 15 14 14 14 14 15 16 17 20 21 22 22 21 20 20 20 20 20 20 19 20 20 20 19 18 17 16 14 14
17 16 16 16 17 16 18 19 19 17 14 14 14 14 14 14 14 15 15 16 17 18 22 22 22 22 22 21 21 21 21 20 19 20 21 20 20 19 19 19 17 16 15
20 18 17 18 17 16 16 18 18 22 23 21 18 15 15 15 15 15 16 19 22 21 22 23 23 22 22 22 22 22 21 20 20 20 20 20 20 20 20 19 18 17 17
20 18 18 19 18 17 18 16 16 22 24 25 25 19 21 17 17 18 18 23 24 23 23 23 23 23 23 22 22 22 22 22 22 21 20 20 19 19 20 19 19 18 17
20 17 18 17 16 16 16 15 15 18 22 22 22 22 20 23 23 24 23 23 24 24 24 24 23 23 23 23 22 22 22 22 22 21 21 21 20 19 19 19 20 19 18
18 18 18 16 15 16 15 15 15 16 18 21 21 25 23 26 26 26 24 24 24 24 24 24 24 24 23 23 22 22 22 22 21 21 21 20 20 20 19 18 18 18 17
17 18 17 17 16 16 16 16 15 15 16 20 19 19 21 23 24 23 24 24 24 23 23 24 24 24 23 23 23 22 22 22 21 21 20 20 19 19 19 19 18 17 16
18 20 19 17 17 18 17 16 17 16 17 17 18 19 19 20 21 22 22 23 23 24 24 24 24 24 23 23 22 21 21 21 20 20 20 20 19 18 18 18 18 18 17
20 21 19 18 19 18 19 19 18 18 17 20 21 19 19 19 19 20 20 21 22 23 24 24 24 24 23 23 22 21 21 20 19 19 19 19 19 18 18 17 16 16 16
24 24 23 21 21 19 21 20 20 19 19 20 19 19 18 18 19 19 19 19 20 21 22 23 23 23 23 24 23 21 21 21 20 19 18 18 19 19 18 18 17 16 16
22 23 23 23 21 19 20 21 21 18 21 20 20 18 18 18 19 19 20 19 20 20 21 21 22 23 24 23 22 20 22 21 20 19 18 19 19 19 18 18 18 17 17

GFSGL_con_lsi_162.txt.gz
Lid_Strength_Index
13 12 11 11 10 10 10 10 9 10 9 9 9 9 8 9 10 11 11 10 10 9 8 8 6 2 2 2 2 2 3 3 5 4 2 2 1 1 1 1 0 1 1
12 12 11 11 11 11 11 10 11 11 10 10 9 9 9 10 11 12 12 12 11 10 9 9 8 6 2 2 2 3 3 2 3 5 4 3 2 1 1 1 1 1 1
12 12 12 11 11 11 11 10 11 11 11 11 10 10 10 11 11 12 12 12 12 11 10 10 9 10 6 2 2 3 2 2 2 3 4 4 4 3 2 2 2 2 2
11 12 13 12 12 11 11 11 11 11 11 11 11 11 11 12 12 13 13 13 13 12 12 11 11 12 14 13 9 5 3 3 3 3 4 5 5 4 3 3 5 3 2
12 13 13 12 12 11 11 11 11 11 10 11 12 12 12 13 12 13 13 14 14 13 13 13 12 12 12 13 14 13 12 6 3 4 4 8 8 8 4 4 4 5 5
13 13 13 12 12 12 12 11 12 12 11 12 12 12 13 13 13 12 12 14 14 14 14 14 14 13 13 13 14 14 14 13 9 7 6 8 7 6 6 7 6 10 9
13 13 13 13 13 12 12 12 12 13 12 13 13 13 14 13 13 12 12 14 15 15 15 15 14 15 15 14 14 14 14 13 14 11 9 11 10 12 10 9 9 9 8
13 13 13 13 13 13 13 13 13 13 13 12 13 13 14 13 13 12 12 14 14 14 14 14 15 15 15 14 14 14 13 13 14 14 14 13 12 12 12 11 11 12 14
13 13 13 13 14 13 13 14 13 13 13 13 12 13 14 14 13 12 13 14 15 15 15 14 14 15 15 13 15 15 16 15 14 15 14 13 13 13 12 13 14 13 13
13 13 13 13 13 13 14 14 13 13 13 13 12 13 13 15 13 12 13 15 15 16 16 15 15 15 15 15 16 17 17 17 16 15 15 14 13 13 13 12 12 13 14
13 13 13 13 13 13 13 14 14 14 14 14 13 14 14 14 14 12 12 14 16 16 17 17 17 15 16 16 16 17 16 17 18 17 16 16 14 14 13 13 13 13 13
13 13 13 13 13 12 14 13 14 14 15 14 15 15 15 14 13 13 13 13 14 17 17 17 18 17 17 17 17 17 17 17 18 19 18 18 18 17 16 15 14 14 13
14 14 14 14 14 13 14 14 14 15 15 15 16 17 17 15 15 13 14 14 14 17 16 17 17 17 18 18 18 18 18 19 20 20 20 20 19 17 16 15 14 13 13
15 17 16 17 14 15 15 15 16 16 16 15 16 18 17 17 15 15 15 16 15 17 18 18 19 18 19 19 19 19 19 19 20 21 20 19 18 18 18 16 16 14 14
15 18 18 17 18 17 16 18 15 18 14 15 15 16 17 17 16 14 15 16 16 17 19 19 20 20 21 20 20 20 20 20 20 20 21 21 20 19 19 18 17 17 15
16 17 18 17 18 18 18 17 14 13 12 12 13 14 15 14 14 14 15 15 15 17 20 22 22 22 22 22 22 21 21 21 21 20 21 21 20 20 20 19 18 18 17
19 18 18 18 19 18 17 18 18 16 13 13 13 14 14 14 14 15 15 17 17 19 22 23 23 23 23 22 22 22 22 21 20 21 21 20 19 20 20 20 19 19 18
22 20 21 21 21 19 19 18 16 18 20 20 17 15 15 15 15 16 17 19 23 22 23 23 24 23 23 23 22 22 22 21 21 21 20 20 20 20 19 19 19 19 19
23 22 22 22 22 21 20 18 16 17 18 20 23 17 19 17 17 18 19 24 25 24 24 24 24 24 24 23 23 23 22 22 21 21 21 20 20 20 20 19 19 20 19
23 21 21 21 21 20 19 18 16 15 19 21 19 18 19 20 22 23 23 23 24 24 24 24 24 24 24 24 23 23 23 22 21 21 21 20 20 20 19 19 19 19 19
23 22 21 20 20 20 20 18 17 16 16 19 21 24 21 20 22 22 22 23 23 24 24 24 24 24 24 23 23 23 23 22 22 21 21 20 20 20 19 19 18 18 17
20 21 21 23 21 22 21 20 19 18 17 18 19 18 20 20 19 20 20 21 22 22 22 23 24 24 24 24 24 24 23 23 22 21 21 21 20 19 18 18 18 18 17
22 24 23 21 23 23 22 21 20 19 17 20 20 19 19 19 19 19 19 19 20 21 21 22 23 24 23 23 23 23 23 22 22 21 21 21 20 19 18 18 18 17 17
22 25 22 24 25 24 26 25 23 21 20 20 21 21 20 19 19 19 19 19 19 19 20 21 22 23 23 23 23 22 21 21 21 21 20 20 19 19 18 18 18 17 17
26 28 28 27 27 28 27 24 25 23 23 23 22 20 19 20 19 19 19 19 19 19 19 19 20 21 22 23 23 22 22 22 23 22 20 19 20 20 19 18 18 17 16
24 26 27 29 28 27 27 27 25 24 22 22 22 22 22 20 19 19 19 19 19 19 19 19 19 20 21 21 21 20 22 23 23 22 20 19 20 20 19 19 18 17 17

GFSGL_con_lsi_165.txt.gz
Lid_Strength_Index
11 10 10 10 10 9 9 8 8 8 8 8 9 9 9 9 9 9 10 11 11 11 10 10 10 8 8 9 7 3 2 3 5 3 2 1 1 1 1 0 0 0 2
10 10 11 10 10 9 9 8 8 9 8 8 9 9 10 10 10 11 11 11 12 12 12 11 11 9 9 9 10 9 2 2 3 5 3 2 2 1 1 1 1 0 1
10 11 11 11 10 10 9 9 9 9 9 9 9 10 10 10 11 11 12 12 11 12 12 11 11 11 10 11 10 11 8 2 2 3 4 2 2 1 2 1 1 1 0
11 11 11 11 11 10 9 9 9 9 9 9 9 10 10 11 11 11 12 12 11 12 12 12 11 12 11 12 11 12 11 9 3 3 3 3 2 2 2 3 3 2 2
12 12 11 11 10 10 10 10 10 10 9 10 10 10 10 11 12 12 12 12 12 12 12 12 12 11 11 12 12 12 12 14 3 4 4 4 4 4 4 3 3 2 2
12 12 11 11 10 10 10 10 10 10 10 10 10 11 11 11 12 12 12 12 12 12 13 13 12 12 12 12 11 13 13 15 11 6 4 5 5 3 3 4 4 8 7
12 12 11 11 11 10 10 10 11 11 11 11 11 11 12 12 12 12 12 12 12 12 13 12 13 13 13 13 12 14 13 13 16 13 13 13 11 10 7 8 6 4 4
12 12 11 11 11 11 10 11 11 11 11 11 11 11 12 12 12 11 12 12 13 12 13 13 13 14 14 14 14 15 15 15 14 14 14 14 14 13 11 11 11 12 13
12 11 11 11 11 11 11 11 11 11 11 11 12 12 12 12 12 12 12 13 13 14 13 13 14 15 14 14 16 17 17 17 15 14 13 13 13 13 12 13 14 12 13
12 11 11 11 11 11 11 11 11 11 11 11 12 12 13 13 12 12 12 13 14 14 14 14 15 16 15 15 17 17 18 18 17 15 15 14 14 14 14 14 13 13 13
11 11 11 11 11 11 11 11 11 11 11 12 12 12 12 13 13 12 12 13 13 15 15 15 15 16 16 16 16 16 17 17 17 16 16 16 15 15 16 16 14 15 14
11 11 11 11 11 11 11 11 11 11 12 12 12 13 12 13 13 13 13 13 13 15 15 16 16 17 17 17 18 18 18 17 16 17 17 17 17 18 16 15 14 14 13
12 12 12 12 12 12 12 12 12 12 12 13 13 14 13 13 12 13 13 14 14 15 15 15 17 17 17 18 18 19 19 18 18 18 18 17 17 16 15 16 15 14 12
13 14 14 14 13 13 12 12 13 13 13 13 14 14 14 14 13 12 13 13 14 15 16 16 17 17 18 18 19 19 19 19 20 20 19 17 17 17 16 17 17 16 14
14 14 14 14 14 14 13 13 13 12 12 14 14 14 15 15 14 13 14 15 15 17 17 17 17 17 18 18 18 19 19 19 21 20 20 19 18 18 17 17 17 17 16
14 14 15 15 15 15 14 14 13 13 13 13 13 13 12 13 13 13 14 15 16 17 17 19 19 19 19 19 19 19 19 19 20 20 20 20 20 19 19 18 17 17 17
16 15 15 15 15 16 15 15 15 14 14 14 13 12 12 12 12 13 14 16 17 17 19 19 20 20 20 19 19 19 19 19 18 18 19 19 20 20 19 19 18 17 17
16 17 16 16 16 15 15 15 15 16 17 15 14 13 13 13 13 13 15 16 18 18 19 20 20 20 20 20 20 20 19 19 18 18 18 18 19 19 19 19 18 18 18
15 16 16 16 16 16 15 15 15 15 16 15 14 14 14 13 14 14 15 17 19 19 20 20 20 20 20 20 20 20 20 19 19 18 18 18 18 18 19 18 18 18 18
16 17 17 16 16 16 16 16 16 16 16 16 15 15 14 14 15 15 15 16 17 19 19 20 20 20 20 20 20 20 20 19 18 18 18 17 17 17 17 17 17 17 17
15 16 18 16 16 16 16 17 17 17 16 16 15 15 17 16 15 15 16 16 17 17 18 19 20 20 20 20 20 20 20 19 19 19 18 18 18 17 16 16 16 15 15
16 16 16 17 16 17 17 17 17 17 16 16 15 15 16 15 15 15 16 16 16 16 16 18 19 19 19 20 20 20 20 20 19 19 19 18 17 16 16 15 15 15 15
16 17 16 16 17 18 17 17 17 17 16 16 15 15 15 15 15 15 15 15 15 16 16 16 17 19 18 19 19 19 20 20 19 19 20 19 17 16 16 15 15 15 15
16 17 17 17 17 17 17 17 17 17 17 16 15 15 15 15 15 15 15 15 15 15 15 16 17 17 18 19 18 18 18 19 19 19 19 19 17 17 16 16 15 15 14
16 17 17 18 18 18 18 18 17 17 16 15 15 15 15 15 15 15 15 15 16 15 16 16 16 16 17 18 18 18 18 20 20 21 19 18 17 17 16 16 16 15 14
16 16 17 17 17 18 18 18 18 17 17 16 15 15 15 15 15 15 16 16 16 16 15 15 15 16 16 16 17 17 18 19 19 20 19 17 17 17 17 16 16 15 14

GFSGL_con_lsi_171.txt.gz
Lid_Strength_Index
7 7 7 7 7 7 7 7 7 6 6 7 7 8 7 8 7 7 8 8 9 9 9 9 9 9 9 8 9 9 9 9 11 9 7 6 6 6 4 2 1 0 0
8 8 8 7 7 8 7 7 6 6 6 7 7 8 8 8 8 8 9 9 10 10 9 9 9 9 10 9 9 9 10 10 11 12 9 8 8 7 6 4 3 0 0
8 8 8 8 8 7 7 6 6 6 7 7 7 8 8 7 7 7 9 10 10 9 9 10 10 10 10 10 10 10 10 10 10 11 11 9 9 8 7 4 2 1 0
8 8 9 8 7 7 7 7 6 6 6 6 7 7 7 7 7 8 9 9 9 9 9 9 9 10 10 10 10 11 11 11 11 12 12 11 9 8 7 5 3 2 2
9 9 8 8 7 7 7 7 6 6 5 5 6 6 7 7 8 9 9 9 10 9 9 9 9 9 9 10 11 11 12 12 13 13 13 12 10 11 10 7 3 3 2
9 9 8 8 8 8 7 7 6 6 6 6 6 7 8 7 9 9 10 10 9 8 9 9 9 10 10 11 11 12 12 13 13 13 13 13 12 11 10 10 9 4 5
8 9 8 8 8 8 7 7 7 7 6 7 7 7 8 7 9 9 10 9 9 8 9 9 10 10 10 11 12 12 12 13 13 13 14 14 13 12 11 12 11 7 4
9 9 9 9 8 8 7 7 7 7 7 7 7 8 8 8 10 10 10 10 9 9 9 9 10 11 11 13 12 12 13 13 13 13 14 12 12 12 11 11 12 11 7
9 9 9 8 8 8 8 8 7 8 8 8 8 9 9 9 10 10 11 11 11 11 10 9 10 11 12 12 13 13 14 14 13 13 12 12 11 11 12 12 13 14 11
10 9 9 8 8 9 8 8 8 8 8 8 9 9 9 10 10 11 11 11 13 12 11 10 11 11 12 13 13 13 15 15 15 15 14 12 12 12 12 12 14 15 14
9 9 9 9 9 9 8 8 8 8 8 9 9 9 9 10 10 11 11 12 12 13 12 12 11 12 12 12 12 13 14 14 15 15 15 14 14 13 12 14 14 15 15
9 9 9 9 9 9 9 8 9 9 9 10 10 11 10 10 11 11 12 12 12 13 13 12 12 12 12 12 12 13 13 14 15 16 16 17 16 16 15 15 15 14 14
10 10 10 10 10 9 9 9 10 10 11 11 12 12 12 11 11 12 12 12 12 13 12 13 12 11 12 12 13 13 13 14 16 17 18 18 17 16 15 16 15 15 15
11 12 11 11 11 10 9 10 10 11 12 13 13 14 13 13 12 12 12 12 12 12 12 11 10 11 12 13 13 13 13 14 16 17 17 17 17 17 17 16 17 16 15
11 11 11 10 10 10 10 10 10 11 12 13 14 14 14 14 13 13 13 13 12 12 12 10 11 12 13 14 14 14 14 14 16 17 17 18 18 18 18 17 17 16 16
12 11 11 10 10 10 10 10 11 12 12 12 12 13 12 13 13 13 12 12 12 11 11 12 12 12 14 15 15 16 15 15 16 16 17 17 18 19 18 17 16 16 17
12 12 10 11 11 11 11 11 12 11 11 11 12 12 12 13 13 12 12 12 11 11 12 12 12 13 14 15 15 16 17 16 15 15 17 18 18 19 18 18 17 17 17
12 13 11 10 11 11 11 11 12 12 13 12 11 12 13 13 13 12 12 12 12 12 12 12 13 13 13 15 15 16 16 16 16 16 16 17 18 18 19 19 18 18 17
11 11 11 10 10 11 11 11 12 12 12 12 12 12 13 14 13 12 12 13 13 13 12 13 12 13 13 14 15 16 16 17 16 16 16 17 18 18 18 19 18 18 17
11 14 13 11 11 11 11 12 12 12 13 13 13 13 13 14 14 14 13 12 12 12 12 12 12 12 13 14 15 16 16 17 17 17 17 17 17 17 18 18 18 18 17
10 10 13 11 11 11 11 12 12 12 13 13 13 13 15 15 14 14 13 13 12 12 12 12 12 12 13 13 15 16 16 17 17 18 18 17 17 18 16 16 17 17 17
10 10 11 11 11 11 12 12 12 12 13 13 13 13 14 13 14 14 13 13 12 12 12 12 12 12 13 13 14 15 16 17 17 18 18 18 18 17 16 16 16 16 15
11 11 11 11 11 12 12 12 12 13 13 13 13 13 13 13 13 13 13 13 13 12 12 12 12 12 12 13 13 14 15 17 18 18 18 18 18 17 16 16 15 15 15
11 12 12 12 11 13 12 12 12 13 13 13 13 13 14 14 14 13 13 13 13 13 12 12 12 12 12 13 13 13 14 15 16 17 18 18 18 16 16 16 15 15 15
12 12 12 12 12 12 12 12 13 13 13 13 13 14 14 14 14 13 13 13 13 14 14 13 12 13 13 13 13 14 14 15 16 17 17 18 17 16 16 16 16 15 15
12 12 12 12 12 12 13 13 13 13 13 13 14 14 14 14 14 14 14 14 14 15 14 13 13 13 13 13 13 14 14 15 16 17 17 17 16 16 16 16 16 15 15

GFSGL_con_lsi_174.txt.gz
Lid_Strength_Index
9 9 8 8 8 8 8 8 8 8 8 7 7 8 9 8 9 8 8 9 9 9 8 9 9 9 9 9 9 9 9 10 12 12 11 10 10 9 8 8 8 8 7
9 9 8 8 8 8 8 8 8 8 7 7 8 8 9 8 8 8 8 9 9 10 9 9 9 8 9 9 9 9 9 9 11 14 12 12 12 11 9 9 8 7 7
9 9 8 8 8 8 8 8 8 7 8 8 8 8 8 8 8 8 9 10 10 10 10 9 9 9 10 10 10 10 10 10 11 13 14 12 12 11 11 9 8 9 7
9 9 9 9 9 9 8 8 7 7 8 8 7 8 8 9 8 9 10 10 11 10 9 8 8 9 10 10 10 11 11 13 13 14 14 14 13 12 12 12 11 10 10
10 9 9 9 9 8 8 8 8 8 7 7 7 8 8 9 9 10 11 11 12 11 10 8 8 8 8 10 11 13 13 14 14 14 14 14 14 14 14 13 12 11 11
10 10 9 9 9 8 8 8 8 8 8 7 8 8 9 9 10 10 11 12 11 11 11 10 10 9 9 9 11 11 12 14 14 14 15 16 15 15 14 14 14 14 15
10 10 10 9 9 9 9 9 9 9 8 8 8 9 9 9 10 10 10 12 12 12 12 12 11 10 10 11 12 12 12 12 12 14 15 15 16 15 14 14 14 14 14
10 10 10 9 9 9 9 9 9 9 9 9 9 9 9 9 10 10 10 12 12 12 12 12 12 11 11 12 13 14 13 13 13 13 13 14 14 13 13 13 13 13 13
11 10 10 10 10 10 10 9 9 9 9 9 9 9 10 10 9 10 11 13 13 13 12 12 12 12 11 11 13 14 14 14 12 11 12 12 12 12 12 13 14 15 15
10 10 10 10 10 10 10 9 9 9 9 9 10 9 9 11 10 10 11 13 13 13 13 12 11 12 11 11 13 13 14 14 14 14 14 13 13 13 13 13 14 16 15
10 10 10 10 10 9 9 9 10 10 10 10 11 10 11 11 11 10 11 13 13 13 13 13 13 12 11 11 11 13 14 13 14 14 15 14 15 15 14 14 13 14 14
10 10 10 10 10 10 10 10 10 11 11 11 12 12 12 12 11 11 11 12 12 13 14 13 13 11 11 12 12 12 12 14 14 15 16 16 16 16 15 15 13 13 12
11 11 11 10 10 10 11 11 11 11 12 13 13 14 14 12 13 12 12 12 12 13 12 13 12 11 12 12 12 12 13 14 15 16 17 16 16 15 15 15 13 12 12
13 13 11 12 11 11 10 10 11 12 13 14 14 15 15 14 14 14 13 13 12 13 13 13 13 12 13 13 12 12 13 14 15 16 16 16 16 16 16 15 15 14 14
12 13 12 11 13 12 11 11 12 12 13 15 15 15 15 15 14 13 12 13 13 13 14 13 14 14 14 13 13 13 14 15 16 16 16 16 17 17 17 16 16 16 16
12 12 12 11 12 12 12 11 11 11 12 11 12 12 14 12 12 12 11 11 12 12 14 15 15 14 14 14 14 15 15 16 16 16 17 17 18 18 18 18 17 17 18
13 12 12 12 12 13 13 13 14 12 10 10 11 11 12 12 12 12 11 12 12 13 16 15 15 15 14 14 14 15 16 16 16 17 17 18 19 19 19 19 19 19 19
15 15 13 12 13 13 13 13 14 14 15 14 11 11 12 12 12 12 12 13 15 15 15 15 15 14 14 14 15 15 16 16 17 17 18 19 19 20 20 19 19 20 19
13 13 14 12 12 13 12 13 13 14 14 15 14 13 15 13 13 12 12 15 16 16 15 15 14 14 14 14 15 15 16 17 18 18 19 19 20 20 20 19 19 19 19
14 16 15 12 12 12 12 13 14 14 15 14 15 15 15 16 16 16 15 15 16 16 15 15 15 14 14 14 15 16 16 17 18 19 20 20 20 20 21 20 19 19 20
12 13 15 13 12 12 13 14 14 14 15 15 15 15 16 18 15 16 16 15 16 16 15 15 15 14 14 14 15 16 16 17 18 20 20 20 20 21 20 19 19 19 19
12 12 12 13 13 13 13 14 13 14 14 15 15 15 16 15 15 15 15 15 15 15 14 15 15 15 14 15 15 16 16 18 19 19 20 21 21 20 20 19 19 19 19
12 12 12 13 13 14 14 13 14 14 14 15 15 15 15 16 16 16 15 14 14 15 14 15 16 15 14 14 15 15 16 18 17 19 20 21 21 21 19 19 18 19 19
12 12 13 13 13 14 14 13 14 14 14 15 15 15 15 15 15 16 15 14 16 15 15 17 16 15 15 15 15 14 16 16 16 18 19 20 21 21 19 19 18 18 18
12 13 13 13 13 14 14 13 14 14 14 14 15 14 16 15 15 16 15 15 16 15 17 17 15 16 16 15 15 16 16 16 17 17 18 20 20 19 19 19 19 18 18
12 12 13 13 13 13 13 14 14 14 15 15 15 15 15 15 16 16 16 16 18 18 18 17 17 17 16 15 15 15 16 17 18 18 18 19 19 19 19 20 19 18 17

GFSGL_con_lsi_177.txt.gz
Lid_Strength_Index
11 11 12 12 11 11 11 11 11 10 10 10 11 11 10 10 10 10 10 10 11 12 11 11 11 10 9 9 8 9 10 10 12 11 11 11 12 12 12 11 10 10 9
11 11 11 11 11 11 11 11 10 10 10 10 10 10 10 10 10 9 11 11 12 12 12 12 11 9 10 10 10 10 10 11 12 14 13 13 13 12 12 12 11 10 10
11 11 11 11 11 11 11 11 10 10 10 10 10 10 10 10 9 11 11 12 12 12 12 12 11 9 11 11 10 11 11 11 13 14 14 13 13 12 12 12 12 12 11
11 11 11 11 11 11 11 11 10 10 10 10 10 10 10 10 10 11 11 12 12 12 11 11 11 11 11 10 11 11 12 13 13 14 14 14 13 13 13 13 15 13 13
11 11 11 11 11 11 11 11 10 10 10 10 10 10 10 10 10 12 12 12 12 12 12 11 11 11 10 10 11 12 13 13 14 14 14 15 15 15 15 14 15 15 14
11 11 11 10 11 11 11 11 10 10 11 10 10 10 11 10 10 10 12 14 12 13 13 13 12 11 11 10 10 10 11 14 14 14 14 15 15 15 14 14 15 16 16
11 11 10 11 11 12 11 10 11 12 11 11 11 11 11 11 10 10 10 13 14 14 14 14 13 12 12 12 11 11 11 11 12 13 14 14 15 14 14 14 14 15 15
11 11 11 11 12 11 11 12 12 12 12 12 11 11 11 10 10 10 11 13 13 14 14 14 14 14 12 12 12 13 13 13 12 12 13 13 13 13 13 13 13 14 14
12 12 12 12 12 12 12 13 12 12 12 12 11 12 12 12 10 10 11 13 13 14 13 13 13 13 12 10 11 13 13 13 11 11 11 11 11 12 12 13 15 16 17
12 12 12 11 12 12 13 12 12 12 11 11 12 12 11 12 11 10 11 13 14 14 13 13 12 12 11 10 12 13 15 14 15 14 15 14 13 14 13 13 14 17 17
12 11 11 12 13 13 13 13 13 13 13 13 13 13 12 12 13 11 11 13 13 14 14 14 13 11 10 11 11 13 13 14 15 16 16 16 15 15 14 14 14 15 17
12 12 13 13 12 12 13 13 13 14 14 13 13 14 13 13 12 12 12 11 12 14 14 13 13 11 11 12 13 12 12 14 15 16 16 17 17 16 15 14 14 15 14
13 13 14 13 13 13 13 14 14 14 15 14 14 16 16 13 14 12 12 11 11 13 12 12 12 12 12 13 12 12 13 14 15 16 17 17 16 15 15 15 14 15 14
15 16 14 17 14 13 13 13 17 20 19 17 19 21 21 17 16 15 14 13 12 13 13 14 15 13 15 15 14 13 13 13 14 15 16 16 15 16 16 16 17 16 16
15 18 18 20 20 18 16 18 16 19 18 20 20 20 20 21 17 13 12 13 13 13 16 16 17 16 16 15 15 14 14 14 14 15 15 16 17 17 18 17 17 17 17
14 16 19 20 22 22 20 19 12 13 13 11 11 15 16 13 12 12 11 11 12 12 16 17 18 18 17 16 16 15 15 15 15 15 15 17 19 19 19 19 18 18 18
15 15 18 19 22 22 23 22 22 17 11 11 11 11 12 12 12 12 11 12 13 14 21 20 19 17 17 16 16 16 16 15 14 15 17 18 19 19 20 20 19 19 18
20 18 21 22 23 23 23 23 24 22 22 21 14 13 12 12 12 12 12 14 20 19 21 20 18 17 17 16 16 16 16 16 16 17 18 19 20 20 21 21 20 20 19
20 23 23 23 22 22 22 23 23 23 23 23 22 18 19 13 13 12 13 23 24 23 22 21 21 18 17 16 16 17 17 17 17 18 19 20 20 21 22 21 21 20 19
22 21 20 20 21 22 22 22 23 23 23 23 24 23 22 22 24 24 25 26 26 25 25 24 23 19 17 17 16 17 17 17 18 19 20 20 21 21 22 22 21 20 19
19 20 19 19 18 18 21 21 22 22 22 24 24 24 21 24 25 25 25 25 24 21 25 24 25 21 17 16 16 17 17 17 19 19 20 21 21 22 22 22 21 20 20
15 16 18 19 18 20 19 20 20 19 22 23 23 22 20 24 24 25 25 25 22 21 24 21 23 23 17 16 16 17 17 18 19 19 20 21 21 22 22 22 21 21 21
18 19 18 17 17 18 19 19 19 21 22 23 23 22 23 24 25 24 24 25 21 24 23 24 25 22 17 17 17 17 17 18 18 19 20 21 21 22 22 21 21 21 22
17 19 18 19 19 19 20 20 20 20 19 22 23 24 24 24 25 22 25 25 25 22 24 24 24 22 20 19 18 16 17 18 18 19 20 21 21 22 21 21 21 22 21
20 21 20 19 18 19 20 19 20 21 22 23 24 24 23 24 22 25 26 26 24 28 26 26 25 22 22 21 19 17 19 20 20 20 19 21 21 21 22 22 22 22 22
18 17 18 18 18 18 19 20 20 22 22 20 20 21 19 20 21 24 24 26 28 28 27 24 23 23 23 20 19 18 20 21 21 20 20 20 20 21 22 22 22 22 21

GFSGL_con_lsi_180.txt.gz
Lid_Strength_Index
11 11 12 12 12 11 12 12 12 12 12 12 12 12 12 12 11 12 13 13 13 13 13 12 12 11 11 9 11 11 11 11 15 14 13 12 12 12 12 11 10 11 11
11 11 11 11 12 12 12 12 12 12 11 12 11 12 11 11 11 12 13 13 13 13 12 12 12 10 11 12 11 11 11 12 13 16 14 13 13 12 12 12 12 11 11
11 11 11 12 12 12 12 12 11 12 12 11 11 12 11 11 12 12 12 12 12 12 12 12 12 12 13 12 11 11 11 12 13 14 15 14 13 12 13 13 13 13 12
11 11 12 12 12 12 12 12 11 11 12 12 11 11 11 11 11 12 11 12 12 12 12 11 12 13 13 12 12 11 12 13 13 14 14 14 14 13 13 14 15 13 13
11 11 12 12 11 11 12 12 11 12 12 11 11 12 12 12 11 13 12 12 13 13 12 12 12 11 10 11 11 13 13 14 14 14 15 14 14 15 15 14 15 14 13
11 11 11 11 11 12 12 12 12 12 12 11 12 12 12 11 10 10 13 14 13 13 14 13 13 12 12 11 11 11 11 13 14 14 14 15 14 14 14 14 15 15 17
11 11 11 11 12 12 12 13 13 13 13 13 13 13 13 12 10 10 11 13 14 15 14 14 14 12 13 14 12 11 11 11 11 13 14 14 14 13 13 14 15 15 15
12 11 11 12 13 13 13 13 13 13 14 14 13 13 12 11 10 11 11 14 14 14 14 15 15 15 14 12 12 14 14 13 13 11 13 13 13 13 13 13 14 14 14
12 12 12 13 13 14 14 14 14 14 14 14 13 13 14 13 11 11 12 14 13 13 13 13 13 14 12 10 13 14 15 14 11 11 11 12 12 12 12 14 16 16 17
13 13 13 13 14 14 14 14 14 14 13 13 13 14 13 14 12 12 12 13 14 13 13 13 12 12 11 11 13 14 15 14 15 15 15 14 14 15 13 15 15 17 17
13 13 14 14 14 14 14 14 14 15 14 14 15 14 14 14 14 12 12 13 13 14 14 14 13 11 11 11 12 14 14 14 16 15 15 15 15 16 16 16 16 16 17
13 14 15 14 13 14 14 15 15 15 15 15 15 15 15 14 13 13 12 11 11 14 14 13 13 11 12 12 13 12 12 15 15 16 16 16 16 16 16 17 16 15 15
15 15 14 14 14 14 14 15 16 16 16 16 16 18 18 15 15 12 12 11 11 13 13 13 13 13 13 14 13 13 15 16 16 17 16 16 15 15 16 17 17 16 15
16 15 14 16 14 14 14 15 18 21 21 18 20 23 23 19 17 16 15 14 12 13 15 15 16 14 16 16 15 15 15 16 16 16 16 15 15 16 17 17 18 18 18
16 16 18 19 20 19 17 18 18 22 19 21 21 21 23 23 19 13 13 13 15 14 18 20 19 18 17 17 16 16 16 16 16 16 16 16 16 17 17 17 17 18 19
15 17 18 20 25 25 19 21 14 15 15 12 12 17 17 14 12 12 11 12 13 13 18 20 20 20 19 18 18 17 17 17 16 15 16 17 17 18 18 19 18 19 20
15 15 17 20 22 23 27 24 24 20 13 12 11 11 12 12 12 12 12 13 13 15 22 24 26 23 20 18 18 17 18 17 16 16 18 18 18 18 20 20 20 20 21
17 18 19 21 22 26 27 27 28 25 24 23 16 14 12 13 13 13 13 14 21 20 23 24 24 23 21 19 18 18 18 18 18 17 18 19 19 20 21 21 21 22 22
19 23 22 23 24 24 27 27 27 26 25 25 25 19 20 13 13 13 13 24 24 24 23 23 25 24 22 20 19 18 20 19 18 19 19 19 20 21 22 22 22 21 22
21 21 21 21 25 26 26 23 26 26 26 25 25 23 23 21 23 27 28 30 29 26 26 24 23 25 24 22 19 19 19 19 19 20 20 20 21 21 22 23 22 22 21
20 22 21 21 20 20 21 23 25 25 23 23 22 23 21 21 24 28 27 28 28 24 26 24 25 26 24 21 19 19 20 19 19 19 20 20 21 22 22 22 22 21 21
18 18 20 20 20 22 21 23 23 21 21 22 22 21 21 25 27 27 27 27 26 25 26 25 26 26 25 21 21 21 21 20 20 20 21 21 21 22 22 23 23 22 22
19 18 18 19 20 22 22 21 21 21 21 21 20 20 21 24 25 26 24 27 24 27 27 29 30 26 25 26 24 21 20 20 20 21 22 22 22 23 23 23 23 23 23
19 19 18 21 20 19 21 22 21 19 18 19 22 21 24 24 24 23 24 26 26 29 31 31 29 27 25 26 23 20 19 20 21 22 22 22 23 23 23 23 24 24 24
21 22 21 20 20 21 21 19 20 19 20 21 22 23 21 22 21 24 26 27 29 32 31 29 29 28 27 26 25 23 22 23 23 23 22 22 23 23 23 23 24 24 24
20 19 19 20 20 20 20 20 19 20 21 22 23 23 23 23 25 27 27 30 31 31 30 29 28 26 26 24 23 21 24 24 25 24 23 23 23 23 22 24 24 24 24

GFSGL_con_lsi_183.txt.gz
Lid_Strength_Index
12 12 12 12 12 11 12 12 12 13 13 13 13 13 13 13 13 14 14 14 15 15 14 14 13 12 12 13 12 12 12 11 14 14 13 13 13 13 13 12 11 12 11
12 12 12 12 11 12 12 12 12 13 13 13 12 13 13 13 14 14 14 14 14 14 14 13 13 12 14 13 12 12 13 11 13 15 14 14 14 13 13 13 12 11 12
12 12 12 12 12 12 12 12 12 12 12 12 12 13 13 13 13 14 14 14 14 14 13 13 13 14 14 13 13 13 12 12 13 14 15 13 13 13 13 13 13 13 12
12 12 12 12 12 12 13 12 12 12 13 13 13 13 13 13 13 13 13 14 14 13 13 13 13 14 14 13 13 13 13 13 13 14 14 14 14 13 13 15 14 13 14
11 12 12 12 12 12 12 12 12 12 13 13 13 13 13 13 13 14 14 14 14 14 13 13 13 12 11 12 13 14 13 13 13 14 15 15 15 14 16 14 15 15 14
11 11 11 12 12 12 13 12 12 13 13 13 14 13 13 12 11 12 15 15 14 14 15 14 13 13 12 12 11 11 11 14 15 15 15 16 15 15 14 15 15 16 17
11 11 11 12 12 12 12 13 14 14 14 14 14 13 14 13 11 12 12 14 15 16 15 15 14 13 13 14 13 11 12 11 12 14 15 15 15 14 14 14 14 15 15
12 11 12 12 12 13 13 14 15 15 15 15 14 14 14 13 12 12 13 15 15 15 15 16 16 16 15 13 12 18 16 14 14 12 14 14 13 13 13 14 14 15 15
12 12 13 13 13 13 14 15 15 16 16 15 14 15 15 15 13 13 14 15 15 14 14 14 14 15 12 11 14 16 16 15 11 11 12 11 11 12 12 14 17 18 18
13 13 13 13 13 14 14 15 15 16 15 14 15 15 14 16 14 14 14 14 15 14 14 14 13 13 11 11 13 15 16 14 16 16 15 14 13 14 12 15 16 19 19
13 13 13 13 14 15 16 16 16 15 15 16 16 16 15 15 15 14 13 14 14 15 15 14 14 13 12 12 12 14 14 14 16 16 16 16 16 15 15 15 15 17 19
13 14 14 15 15 16 16 17 16 16 16 16 17 17 16 16 15 14 13 13 12 14 15 15 14 13 12 13 14 12 12 16 16 17 17 17 17 16 15 15 15 15 16
14 15 15 15 15 16 17 17 17 17 17 17 18 19 19 16 16 14 14 13 12 14 14 14 14 14 14 14 14 13 15 17 18 18 18 17 17 16 16 15 15 15 15
15 15 15 16 16 16 16 16 18 20 20 19 21 24 25 21 19 18 17 16 14 15 17 17 18 15 17 17 16 16 15 17 18 18 18 17 16 16 17 16 17 17 17
15 16 17 17 17 17 17 18 18 23 19 21 23 22 26 25 21 15 15 14 17 15 21 22 22 20 19 18 17 17 16 17 18 18 18 18 18 17 18 17 17 17 19
16 17 18 20 21 20 19 22 15 16 16 14 14 19 22 15 13 12 12 13 13 14 20 23 25 25 22 20 19 19 18 19 19 18 18 18 19 18 19 18 18 18 19
16 17 18 19 21 23 26 21 23 21 14 13 12 12 12 14 12 12 12 13 14 15 23 24 28 27 25 21 20 19 19 19 18 19 18 19 19 19 19 19 20 20 21
16 17 18 21 22 24 24 28 28 26 26 25 18 15 12 12 13 13 13 15 22 21 23 25 25 24 24 21 21 20 19 20 20 19 20 20 19 20 21 21 21 21 22
18 21 21 22 23 24 27 29 30 29 28 27 28 21 22 13 13 13 14 24 25 25 24 24 25 25 25 23 23 21 21 21 21 20 21 20 20 21 21 22 22 22 22
20 21 21 21 24 27 28 27 29 28 29 28 28 26 25 21 23 23 25 27 29 27 25 27 25 27 27 27 24 22 22 21 21 20 21 21 21 21 22 23 22 23 22
19 19 20 20 21 23 24 24 24 24 26 26 24 25 22 20 20 22 23 26 29 28 26 26 27 27 27 27 23 23 22 22 21 21 22 22 23 23 22 22 23 22 22
18 19 20 21 22 23 23 22 22 23 23 22 22 22 21 23 21 20 23 23 23 24 25 24 27 28 28 28 25 24 23 23 23 22 23 24 23 23 23 23 23 23 23
19 20 20 21 22 23 24 23 24 24 24 24 21 20 21 23 22 22 21 24 26 25 26 28 32 29 28 28 28 26 23 22 23 23 25 25 24 23 24 24 24 24 24
20 21 19 22 23 22 23 24 23 22 22 22 23 24 25 25 26 25 26 25 25 27 31 33 33 30 28 28 28 26 22 23 23 25 27 25 24 24 24 24 23 24 24
22 24 23 22 22 23 24 21 22 22 20 22 24 25 25 26 25 27 26 28 30 33 32 32 31 30 29 29 28 26 27 25 26 26 25 25 25 25 25 24 24 25 25
21 21 22 23 24 25 21 21 23 22 23 24 26 27 27 27 27 30 30 31 32 32 31 31 30 29 29 27 26 24 25 26 27 26 25 25 25 26 25 24 24 25 25

GFSGL_con_lsi_189.txt.gz
Lid_Strength_Index
9 9 9 9 10 10 11 11 12 12 12 12 13 13 12 12 12 13 13 14 14 14 13 13 14 13 12 11 11 10 11 11 13 12 11 10 10 10 10 10 10 9 10
9 9 10 11 10 11 11 12 12 12 12 12 12 12 12 12 12 13 14 14 14 14 14 14 14 13 13 12 11 12 11 12 13 13 11 11 11 11 11 10 10 10 10
10 10 10 11 11 12 12 11 11 12 12 12 12 13 13 13 13 13 14 14 14 15 14 15 13 13 13 12 12 12 12 12 11 12 13 11 11 11 11 11 11 10 10
10 11 12 12 11 11 11 11 11 12 12 12 12 12 12 13 13 14 14 14 14 15 15 14 13 13 13 13 12 12 12 12 12 12 13 13 12 11 11 12 12 10 10
10 10 10 11 12 11 12 11 11 12 12 12 12 12 12 13 13 14 14 14 15 16 15 14 13 13 14 13 12 12 12 13 13 13 13 13 13 12 13 12 12 11 10
10 11 11 12 12 12 12 12 11 12 12 12 13 12 13 13 14 14 14 15 15 16 14 14 14 14 14 14 13 13 13 13 14 14 14 14 13 13 12 12 12 12 13
10 11 11 12 13 13 13 12 13 12 12 13 13 13 13 12 13 14 15 14 15 15 14 14 14 13 13 13 12 13 13 14 14 14 14 13 13 13 12 13 13 13 13
11 12 12 12 13 13 13 13 13 13 13 13 13 13 13 12 13 13 15 15 15 14 14 14 14 14 13 13 13 13 13 13 13 12 12 12 12 12 12 12 13 13 12
11 11 11 12 13 13 14 14 14 13 14 13 13 13 13 13 13 14 15 15 14 14 13 13 13 14 14 13 13 14 14 14 12 13 12 12 12 12 12 12 14 15 15
11 12 12 13 13 13 13 14 14 13 13 13 13 13 14 14 14 15 15 14 14 13 13 13 15 14 14 14 13 14 15 14 13 14 13 13 13 13 13 12 14 16 16
12 13 14 13 13 13 13 13 13 13 14 14 14 14 15 14 14 15 15 14 13 14 14 14 14 15 14 14 14 14 14 13 14 14 14 13 13 13 12 12 13 15 16
13 12 12 13 13 14 14 14 14 14 14 14 15 15 15 15 16 15 14 14 13 14 14 14 14 15 15 15 15 15 14 15 14 14 14 14 14 14 13 13 14 14 13
12 12 12 13 13 14 14 14 15 15 15 16 15 16 16 16 15 15 15 14 14 14 14 15 16 16 16 15 16 15 15 14 15 15 15 15 14 14 14 14 14 14 14
13 13 13 13 13 13 13 13 15 14 15 15 15 16 16 15 14 14 13 13 14 15 16 14 16 16 17 16 15 14 14 14 15 15 15 15 14 15 15 15 15 15 15
12 12 13 13 13 14 14 14 13 13 13 14 14 15 16 15 14 14 14 14 13 14 15 14 14 14 15 14 14 15 14 14 15 15 15 16 16 16 16 15 16 16 16
12 13 13 13 13 14 14 15 14 15 14 15 15 14 14 14 14 14 14 13 14 14 14 14 15 15 15 15 15 15 15 16 16 16 16 17 17 17 17 16 16 16 17
13 13 13 13 14 14 14 14 15 15 14 13 14 14 14 14 14 13 14 14 14 14 14 14 14 14 15 15 15 16 17 16 17 17 17 17 17 17 18 17 17 17 17
13 14 13 13 13 13 14 14 14 14 14 14 14 13 13 13 13 13 14 14 13 14 13 14 14 14 15 16 16 17 17 18 17 18 18 17 18 18 18 18 18 19 18
14 14 14 14 14 14 14 14 13 13 14 14 14 15 15 13 13 13 14 12 13 13 13 13 14 15 16 16 17 18 19 19 19 19 18 18 18 19 19 19 19 19 19
14 16 15 14 15 14 14 15 15 15 15 14 14 14 14 15 14 13 12 12 13 13 13 14 15 15 17 17 18 19 19 19 19 19 19 18 19 19 20 20 20 19 19
14 14 14 13 14 14 15 15 14 14 14 14 14 14 17 14 13 12 12 12 13 13 14 15 15 17 17 18 19 19 20 20 20 20 19 19 20 21 20 20 19 19 19
13 13 13 14 14 15 14 14 14 14 14 14 14 15 20 15 12 12 12 12 13 14 14 15 16 17 18 20 20 20 21 21 20 20 20 21 21 20 20 20 20 20 20
13 13 14 14 14 16 15 14 14 14 14 14 14 14 14 13 12 12 12 13 14 15 16 17 18 19 19 20 20 20 21 21 21 21 22 21 22 21 21 21 20 20 20
13 13 13 13 14 14 14 14 14 15 14 14 14 13 13 12 12 13 14 15 16 16 18 19 20 22 21 21 20 20 20 21 21 21 22 22 22 22 21 21 21 21 21
13 13 14 14 14 14 14 14 14 14 14 14 13 13 12 13 13 14 15 17 18 19 20 21 22 22 22 23 23 23 23 23 23 23 22 22 22 22 22 21 21 21 21
14 14 14 14 14 14 14 14 14 14 14 13 13 13 13 13 14 15 17 19 19 20 21 21 22 23 23 22 22 23 24 24 24 24 23 22 22 21 21 21 21 21 20

GFSGL_con_lsi_192.txt.gz
Lid_Strength_Index
5 5 6 6 6 7 7 8 9 9 10 12 12 12 12 12 12 12 12 12 12 12 12 11 12 11 10 9 9 9 9 9 11 9 8 8 8 8 8 8 8 8 8
5 6 6 6 6 7 7 8 9 11 11 12 12 12 12 12 12 12 13 13 13 13 12 12 13 12 11 10 9 10 10 10 10 11 9 9 9 8 9 9 9 9 8
5 6 6 6 7 7 8 9 11 11 12 13 13 12 12 12 12 12 12 13 12 13 13 13 13 12 11 10 10 10 10 10 9 10 10 9 9 9 9 9 9 8 8
5 6 6 6 7 8 9 10 11 11 12 12 12 12 12 12 13 12 12 12 13 13 13 13 13 12 11 12 12 11 11 10 10 10 10 11 10 9 9 10 10 9 8
6 6 6 6 7 8 10 10 11 12 12 12 12 12 12 12 13 13 12 12 13 14 13 14 13 13 16 15 12 12 11 11 11 11 12 11 11 11 11 10 11 10 9
6 6 6 7 8 9 9 11 12 11 12 12 13 13 13 13 13 14 13 12 13 14 14 14 13 15 15 16 15 14 13 13 13 13 12 13 12 11 11 11 11 11 12
6 6 7 7 9 9 9 11 12 12 12 13 13 13 13 13 14 14 14 12 13 14 13 13 14 14 14 14 13 13 13 13 14 13 14 12 12 11 11 12 11 11 11
5 5 6 8 8 10 11 13 13 13 13 13 13 13 12 13 14 14 14 13 13 13 14 14 13 14 13 13 12 12 12 12 12 12 12 11 11 11 11 11 11 11 10
5 6 7 9 10 11 13 14 14 13 14 13 13 12 12 13 13 13 14 13 14 14 13 14 13 13 14 14 13 13 13 12 12 12 12 12 11 12 11 11 12 12 12
5 6 7 9 12 12 13 13 13 13 13 13 13 12 12 13 12 13 13 13 14 13 13 13 15 14 15 15 14 14 14 13 12 12 11 11 11 10 11 10 11 12 13
6 10 11 12 12 13 13 13 13 13 13 13 13 12 12 12 13 14 14 13 13 14 13 12 11 15 15 16 16 13 14 14 13 12 11 10 10 10 10 10 10 11 13
12 12 12 13 13 13 13 13 13 13 13 13 14 14 13 13 13 14 14 15 14 13 13 11 12 16 16 16 15 16 15 14 11 11 11 11 11 11 10 11 11 11 11
13 12 12 12 12 12 13 13 13 13 13 14 14 14 14 13 13 14 14 15 15 13 12 14 16 17 16 15 15 15 14 12 12 12 12 12 11 11 11 11 11 11 12
12 12 11 12 11 12 12 12 12 12 13 14 13 13 13 13 12 13 13 13 14 14 15 14 15 16 16 15 14 12 12 12 13 13 12 12 11 12 12 12 13 13 13
11 11 11 12 11 11 11 11 11 11 11 11 12 11 12 12 12 13 12 12 12 13 13 13 13 13 13 12 12 12 11 11 12 12 13 13 13 13 13 12 13 13 14
11 11 11 11 11 11 12 12 12 12 12 12 11 11 11 12 13 13 14 14 14 15 14 14 13 13 13 12 12 12 12 13 13 14 14 14 14 14 14 13 13 14 14
10 10 11 10 11 11 11 12 13 13 13 13 14 14 13 13 13 13 13 14 14 14 14 13 13 12 12 12 12 12 13 13 14 14 14 15 15 15 15 14 14 14 15
10 10 10 10 10 10 10 11 11 13 13 14 14 13 13 13 13 13 13 14 14 14 13 12 12 11 11 12 12 13 13 14 14 15 16 15 16 15 15 15 15 16 16
10 10 9 9 10 10 10 11 11 11 11 12 12 13 12 12 12 13 13 13 13 13 12 11 11 11 12 12 13 14 14 15 15 16 16 16 16 16 16 16 16 17 17
10 11 10 10 11 11 10 10 11 11 11 12 12 12 12 12 12 13 12 12 12 12 11 11 11 11 12 13 14 14 15 15 16 16 16 16 16 16 17 17 17 17 17
11 11 11 10 10 10 10 11 11 11 12 12 11 11 13 12 12 12 12 12 11 11 11 11 11 12 13 14 14 15 16 16 17 17 17 16 16 17 17 17 17 17 17
10 11 10 10 10 10 11 11 11 12 12 12 12 13 15 12 12 12 12 11 10 11 11 12 12 13 14 15 16 16 17 18 17 17 17 18 17 17 17 17 17 17 17
10 10 10 10 11 12 11 11 11 11 12 12 12 12 12 12 12 12 11 10 11 12 12 13 14 15 15 16 16 17 18 18 17 18 19 19 18 18 18 18 18 18 18
9 10 11 11 11 11 11 11 11 12 12 12 12 12 12 12 12 11 11 11 12 12 13 15 16 17 17 18 17 17 17 17 18 19 19 19 19 19 18 19 18 18 18
10 10 10 11 11 11 11 11 11 11 11 12 12 11 11 12 12 11 11 12 14 14 15 16 17 17 18 19 20 20 19 20 21 21 21 20 20 20 19 19 18 18 18
10 10 10 10 11 11 11 11 11 11 12 11 11 12 12 12 11 11 12 14 15 16 16 16 17 18 19 19 19 19 21 22 22 22 21 20 20 19 18 18 19 18 18

GFSGL_con_lsi_195.txt.gz
Lid_Strength_Index
3 3 4 4 5 6 7 8 8 7 8 9 10 10 11 12 12 11 12 13 12 12 12 12 11 11 11 10 10 10 10 10 11 10 9 8 8 9 8 7 7 7 8
3 3 4 4 5 6 7 7 7 8 8 9 10 11 11 12 12 13 13 13 13 13 13 12 12 12 11 10 10 10 10 10 11 12 10 9 9 9 9 8 8 8 8
4 3 3 4 5 6 7 7 8 8 10 10 11 11 12 12 12 13 13 13 13 13 13 12 12 12 11 10 10 10 11 10 10 11 11 10 10 9 9 8 8 8 9
4 4 4 4 4 5 6 7 8 10 10 11 11 11 12 13 13 13 14 14 13 14 12 12 13 12 11 11 11 11 11 11 11 11 11 11 11 9 9 10 11 10 10
4 4 4 4 4 5 5 7 8 9 10 11 11 12 12 13 13 13 14 14 14 14 14 14 13 14 15 15 13 11 12 12 12 13 13 12 11 11 11 11 12 12 11
4 4 4 4 5 6 7 8 8 9 11 11 12 12 13 13 14 14 14 14 14 14 14 14 13 15 15 16 16 15 15 14 15 14 14 13 12 11 12 12 13 13 13
3 4 4 4 6 7 8 9 10 10 11 11 11 12 13 14 14 14 14 13 14 14 14 13 13 13 15 13 14 13 14 14 14 14 14 13 13 12 12 13 13 13 12
3 3 4 4 6 7 8 9 10 11 11 12 13 13 13 15 14 14 14 14 14 14 13 13 13 13 13 14 14 14 13 12 12 12 12 12 12 12 12 12 12 12 10
2 2 3 4 6 7 9 10 11 12 12 13 13 14 14 15 14 14 14 14 14 14 13 13 13 13 15 16 15 15 14 12 11 12 12 12 12 11 11 12 12 12 12
2 2 2 4 7 9 10 11 12 12 13 13 13 13 14 14 14 14 14 14 14 13 13 13 15 15 16 16 16 15 15 13 13 13 12 12 11 10 10 10 10 12 12
5 7 9 9 10 11 12 12 12 13 13 13 13 13 13 12 12 12 13 13 13 13 13 13 14 15 16 17 16 15 15 15 15 14 12 11 10 9 9 9 9 10 12
9 10 10 11 11 12 12 12 12 13 13 13 14 13 12 12 12 12 13 14 14 13 13 12 14 15 16 16 16 16 16 15 13 12 12 12 11 10 9 9 10 10 10
10 11 11 12 12 12 12 12 12 12 13 13 14 14 14 13 13 13 14 14 15 13 11 15 15 16 16 15 15 15 15 13 13 13 13 12 10 10 10 10 10 10 10
12 12 12 12 12 11 11 11 12 12 13 13 13 14 14 13 13 13 13 14 14 14 14 13 14 14 15 14 15 13 13 12 12 12 12 11 11 11 11 11 12 12 12
11 11 11 11 11 11 11 11 11 11 11 12 12 11 12 12 12 12 12 13 12 12 12 12 13 12 12 12 12 12 12 11 11 11 11 12 13 12 12 12 12 13 14
11 10 10 10 11 11 11 11 11 11 10 10 10 10 10 10 11 12 12 12 13 14 13 14 13 12 13 13 13 12 11 11 11 12 13 13 13 13 13 13 13 13 14
9 9 10 10 10 11 11 12 14 13 12 12 11 11 11 12 12 13 13 13 14 14 14 13 12 12 12 13 12 12 12 11 12 13 13 14 14 15 14 15 14 14 14
9 10 9 9 9 10 10 11 11 12 13 14 13 12 12 12 13 13 13 14 14 14 13 13 12 12 12 12 11 12 12 12 13 14 14 15 15 15 15 15 15 15 15
9 9 9 10 9 9 9 10 10 11 12 13 13 13 12 13 13 13 13 13 13 12 12 12 11 12 11 11 11 12 13 13 14 15 14 15 15 16 16 16 15 16 16
9 10 9 9 9 10 10 11 11 10 10 11 12 12 12 12 13 13 12 12 12 12 12 12 12 11 10 11 12 13 13 14 14 15 15 15 15 16 16 16 16 16 16
9 9 10 9 10 10 10 10 10 10 11 11 11 10 11 12 11 11 11 11 11 12 11 11 11 10 10 11 12 13 14 14 15 16 16 16 16 17 16 16 16 16 16
9 9 9 10 10 9 10 10 10 11 11 11 10 12 12 11 11 11 11 10 10 11 11 11 11 11 11 12 13 14 15 16 16 16 16 17 17 17 16 16 16 16 17
9 9 10 10 9 10 10 10 10 10 10 11 10 12 12 12 11 11 11 10 11 11 11 11 11 12 12 13 14 15 16 17 16 16 17 18 18 17 17 18 18 17 18
9 9 9 9 10 10 10 10 10 11 11 10 10 10 10 11 11 11 11 10 11 11 11 11 12 14 14 15 16 16 16 16 17 18 18 19 19 19 18 18 18 18 18
8 8 9 10 10 10 10 10 10 10 10 10 10 10 11 11 11 11 11 11 12 13 13 13 13 15 15 17 17 18 18 18 19 20 20 20 20 19 19 18 17 17 18
9 9 9 9 10 10 10 10 10 11 10 10 10 10 11 11 11 11 11 12 13 13 14 14 15 15 16 17 17 17 19 21 21 21 20 20 20 19 18 17 18 18 18

GFSGL_con_lsi_198.txt.gz
Lid_Strength_Index
3 4 4 5 5 5 6 7 7 8 9 9 9 11 11 12 12 12 13 12 13 14 13 13 13 13 13 12 12 12 13 13 15 13 12 12 12 12 11 11 10 11 11
4 3 4 5 5 6 7 7 8 8 9 9 10 11 12 12 12 13 13 13 14 14 13 13 13 13 13 13 13 13 13 13 14 15 13 12 13 12 12 12 10 10 11
5 5 4 5 5 5 7 7 8 9 9 10 10 11 12 13 12 13 13 14 14 14 13 13 14 14 14 13 13 13 13 12 13 14 14 13 12 12 13 12 12 12 11
5 5 4 5 5 5 6 6 7 8 9 10 10 11 12 12 12 13 14 14 14 14 14 14 14 14 14 13 13 13 13 14 13 14 14 14 13 13 13 14 15 13 13
5 5 5 4 5 4 6 7 7 8 10 10 10 11 12 12 13 13 14 14 14 15 15 14 16 15 15 16 15 15 15 14 14 15 15 15 15 15 15 15 15 15 14
5 5 4 4 4 4 6 7 9 9 10 10 11 11 12 12 12 13 13 14 15 15 15 16 16 15 16 16 16 16 15 16 17 17 17 17 17 15 15 16 16 17 18
4 4 4 4 4 5 6 8 9 10 10 11 11 12 12 13 12 13 13 14 15 15 15 16 16 15 15 15 15 15 14 15 15 17 19 16 16 14 15 16 16 16 17
2 2 2 3 4 6 7 8 9 9 10 11 11 12 13 13 13 13 14 14 15 15 15 15 15 16 14 15 15 16 15 14 14 14 15 15 14 14 15 15 16 15 15
2 2 3 3 5 7 8 9 9 10 10 11 12 13 13 13 12 13 14 15 15 16 15 14 13 15 14 15 16 17 17 15 12 12 12 12 12 12 12 14 16 16 17
3 3 3 5 6 7 8 9 9 10 11 12 12 12 12 13 13 13 13 14 16 15 14 14 14 15 15 16 17 18 19 18 17 17 17 15 13 13 11 12 13 14 14
6 8 8 7 8 8 9 10 11 11 11 12 12 13 13 13 13 12 13 14 14 14 14 15 15 15 16 16 17 16 17 17 18 18 17 15 14 15 14 13 12 14 15
8 9 9 9 9 10 10 11 11 11 12 12 13 13 12 13 13 13 12 13 14 13 14 13 15 15 16 16 16 16 16 17 18 17 16 17 18 17 15 14 14 13 13
9 10 10 10 10 10 11 11 11 11 12 13 13 14 14 13 12 11 12 14 14 14 14 14 14 15 15 15 15 15 16 17 17 18 18 18 16 16 15 15 14 13 13
10 11 11 11 11 11 11 11 11 12 13 13 14 14 14 14 14 13 14 15 14 15 16 16 16 15 17 17 16 14 15 15 15 17 17 17 16 16 15 14 16 15 15
10 11 11 11 11 11 11 11 12 11 12 13 13 13 14 15 14 14 14 15 15 14 15 16 17 17 16 16 15 14 14 14 16 16 16 16 16 15 15 16 16 16 17
11 11 11 11 11 11 12 12 11 11 11 10 11 11 12 11 12 12 12 12 12 12 14 16 17 15 15 16 16 16 16 16 15 15 16 16 16 16 16 16 16 17 18
10 10 10 10 11 11 12 13 14 12 10 10 10 10 10 11 11 11 11 12 12 14 18 18 17 17 17 16 16 16 17 17 15 16 17 17 16 16 17 17 17 17 18
9 9 10 10 11 11 12 12 13 13 14 14 12 12 11 11 11 11 12 13 16 16 17 17 17 17 16 15 17 17 17 17 17 16 18 19 19 17 17 17 18 19 18
9 9 10 10 10 10 11 11 12 13 14 15 15 14 13 11 12 12 12 17 16 16 15 15 15 13 14 15 17 18 18 19 19 20 18 17 19 17 19 18 18 18 19
9 9 10 10 10 11 11 12 12 13 14 14 14 15 14 15 15 15 14 16 16 16 16 14 16 16 17 18 18 19 19 19 19 17 20 22 22 20 19 19 19 20 19
9 9 10 10 10 11 11 11 11 11 12 13 13 13 14 14 14 14 14 14 13 13 13 13 14 16 17 17 16 16 16 18 20 21 21 21 22 20 20 20 19 19 18
9 10 10 11 11 11 11 11 10 11 11 12 11 11 13 13 13 12 11 11 12 12 13 16 17 18 18 17 18 20 21 22 21 22 22 21 22 21 20 20 20 19 20
10 10 10 10 11 11 10 11 11 12 11 12 12 14 14 14 15 14 13 13 12 13 15 17 18 19 18 17 17 18 20 22 20 20 22 23 23 22 21 21 21 21 20
10 10 11 11 11 11 11 11 11 12 12 12 11 13 13 14 14 13 12 12 13 15 17 17 18 18 19 20 20 20 20 21 23 24 25 24 24 23 23 21 21 22 21
10 10 10 11 11 10 11 11 11 12 12 11 11 12 11 12 12 12 12 14 17 18 19 19 19 18 20 19 22 22 23 22 25 27 27 26 23 23 23 22 21 20 20
9 10 10 10 11 10 11 11 11 11 12 11 11 11 11 12 12 12 13 15 17 19 19 19 19 19 19 20 21 21 23 25 27 26 25 23 23 23 22 22 22 22 21

GFSGL_con_lsi_201.txt.gz
Lid_Strength_Index
4 4 4 5 5 5 6 7 7 8 8 9 9 10 11 11 11 12 12 12 13 13 13 13 13 13 13 13 13 13 13 13 15 14 15 15 15 15 14 14 13 13 13
5 4 5 5 5 6 6 7 8 8 8 9 9 10 11 11 11 12 13 12 13 13 13 14 14 13 14 13 13 13 13 13 14 16 15 15 15 14 14 14 12 12 13
6 6 4 5 5 5 6 7 7 8 8 8 9 10 11 11 12 12 12 13 14 14 13 14 14 13 14 13 13 14 14 13 14 15 15 14 14 14 15 14 14 14 12
5 6 5 5 5 5 7 8 8 8 9 8 9 10 10 11 12 12 12 13 13 14 13 14 13 14 14 14 14 14 15 15 15 15 15 15 15 15 15 16 16 15 16
5 5 5 4 5 7 7 8 9 9 9 9 9 10 11 12 12 13 13 13 14 14 14 15 15 14 14 14 15 16 16 16 16 17 16 16 16 16 17 16 17 17 17
4 5 4 4 5 6 7 8 9 9 9 9 10 11 12 12 12 12 13 13 14 14 14 15 14 14 15 16 16 16 17 17 17 17 17 18 17 16 16 18 18 19 19
3 3 3 3 4 6 7 8 9 9 9 10 10 11 12 12 11 11 12 13 14 14 15 15 15 15 16 17 16 16 16 16 16 17 18 17 17 16 17 18 18 18 18
3 2 2 3 3 5 6 8 8 9 9 10 10 11 11 11 11 11 12 13 13 14 14 15 15 16 16 16 16 17 15 15 14 15 16 16 16 15 16 17 17 17 16
3 3 3 4 5 6 8 8 8 9 9 10 10 11 12 12 11 11 12 13 13 14 14 14 15 15 14 15 17 17 18 16 14 13 14 14 13 13 13 16 18 17 18
6 6 6 5 6 7 8 8 8 9 10 10 11 11 11 12 11 11 12 13 14 14 14 13 14 15 15 15 16 17 19 20 19 19 19 17 15 15 13 15 16 16 17
7 8 8 9 8 7 8 8 9 10 10 11 11 11 11 11 11 11 12 13 14 14 14 14 15 14 14 15 16 17 17 18 20 20 19 19 18 17 18 19 17 17 18
9 9 9 9 9 9 8 9 9 10 11 11 12 12 11 11 11 11 12 13 12 13 14 14 14 13 14 15 16 17 16 18 19 20 21 21 21 21 18 19 19 18 15
9 9 9 9 9 9 9 10 11 11 12 12 13 13 13 12 12 11 12 13 14 13 13 13 13 13 14 15 15 15 16 19 20 22 21 20 20 19 20 21 19 16 14
9 9 10 10 10 11 11 10 11 11 12 13 13 14 14 13 13 12 13 14 13 14 14 14 15 15 18 18 17 15 15 17 18 18 19 21 19 20 21 20 21 20 21
9 9 10 10 10 11 11 11 11 11 11 13 13 13 14 14 14 13 14 16 16 16 17 19 20 19 18 17 17 16 16 16 17 17 19 20 20 20 20 19 19 21 21
10 10 10 11 11 11 12 12 11 11 11 11 11 12 13 13 12 12 13 13 13 14 17 20 22 21 20 17 16 16 16 17 17 18 20 20 20 20 21 20 19 22 20
10 10 11 11 11 12 12 13 13 11 11 11 11 11 11 11 11 11 12 12 12 13 20 20 23 23 18 15 17 19 20 19 19 20 21 21 20 18 20 19 20 19 20
10 10 10 11 12 12 13 13 13 13 13 12 10 10 10 10 11 11 12 12 16 17 20 22 23 22 17 17 20 20 20 22 21 21 23 24 25 21 18 18 19 23 21
10 10 10 11 12 13 13 14 15 15 15 15 14 14 11 10 10 11 11 20 21 22 22 22 23 22 19 20 22 23 24 24 25 26 24 22 23 21 23 22 22 22 21
9 10 10 11 12 12 13 14 15 16 17 17 18 20 19 14 19 21 23 24 24 21 18 16 16 17 21 23 24 25 26 27 26 24 25 27 28 26 25 24 25 24 21
9 10 10 11 11 12 13 13 14 16 17 17 18 21 20 18 22 21 19 19 20 22 23 22 22 23 24 24 23 23 23 26 25 25 26 26 29 25 25 26 26 22 21
9 10 10 11 12 12 13 14 14 15 15 16 18 18 17 18 18 18 18 17 18 16 15 16 19 22 22 23 25 27 27 28 28 28 27 27 27 27 28 28 27 23 22
10 11 11 11 12 13 14 14 15 14 14 15 13 14 16 19 18 17 13 13 14 17 21 20 21 23 25 23 24 24 25 26 25 27 28 30 30 30 32 29 25 24 23
10 11 11 12 12 14 14 15 15 16 14 15 17 16 17 21 22 22 19 15 16 21 24 23 24 23 25 27 27 27 26 27 28 29 29 32 31 30 32 27 24 24 24
11 12 12 13 13 14 14 15 16 16 15 14 15 17 18 19 21 20 16 18 20 21 23 24 25 23 25 25 26 26 27 26 30 29 30 31 32 33 29 25 24 24 24
12 12 13 13 13 13 14 14 15 15 16 16 16 15 15 16 17 15 17 20 21 24 25 26 26 26 24 25 26 25 27 26 28 28 32 29 29 28 28 26 26 25 24

GFSGL_con_lsi_204.txt.gz
Lid_Strength_Index
4 4 5 4 4 6 7 7 7 8 8 8 9 10 10 11 11 12 12 12 12 13 13 13 14 14 13 13 13 13 13 13 15 16 15 15 15 15 13 15 13 14 13
7 4 4 5 5 5 7 7 7 8 8 8 9 10 10 11 11 12 12 12 13 13 13 13 14 13 13 13 13 13 13 13 14 16 15 15 16 15 15 15 14 14 14
5 4 4 4 5 6 6 6 7 8 8 8 9 10 10 11 11 11 12 12 12 12 13 13 14 13 14 13 13 13 14 13 14 15 15 15 16 16 16 16 16 16 14
5 6 4 4 4 4 5 6 7 7 8 8 9 9 10 11 11 12 12 12 13 13 13 13 13 13 13 14 13 14 14 14 15 15 16 16 16 17 17 17 17 16 16
5 5 5 4 4 5 6 6 6 7 8 8 9 10 10 11 11 12 12 13 12 13 13 14 14 13 13 13 15 15 14 15 16 16 17 17 17 18 18 17 17 17 17
4 4 4 4 4 4 6 7 7 7 7 8 10 11 11 11 11 11 12 12 13 14 15 14 14 13 14 14 14 15 15 15 16 17 18 18 18 17 17 17 18 19 19
2 3 3 3 3 5 6 7 7 8 9 9 10 10 11 11 11 11 12 13 13 14 14 15 15 14 15 15 15 15 15 16 16 17 18 18 18 17 17 17 18 18 19
3 3 3 3 3 4 6 7 8 8 9 10 10 10 11 11 10 10 11 13 14 14 14 14 14 14 14 15 15 15 16 15 15 15 16 16 15 15 16 16 17 18 18
3 5 5 5 4 5 7 8 8 9 9 9 10 11 11 11 10 10 11 13 13 13 13 13 14 14 13 13 16 17 17 16 14 13 14 13 13 13 14 17 19 19 20
5 6 7 7 5 6 7 9 8 8 9 9 10 10 10 11 10 10 11 12 13 13 13 13 13 13 13 14 16 17 18 19 19 18 18 18 16 17 15 17 20 18 19
6 7 8 8 10 9 10 9 9 9 10 10 10 10 10 11 11 10 11 12 13 13 13 13 13 12 13 14 15 16 17 17 19 19 20 20 19 19 20 19 19 20 22
8 8 9 9 8 9 9 10 9 10 10 11 11 11 11 11 10 10 10 11 11 13 13 13 13 12 13 14 16 16 15 18 19 20 21 22 22 22 20 20 20 20 19
8 8 9 8 8 8 9 9 10 10 11 11 11 12 12 11 10 10 10 11 11 12 13 13 13 12 13 14 15 15 17 19 21 23 22 21 22 21 21 22 21 19 18
8 9 9 9 9 9 9 9 10 11 11 12 12 13 13 12 12 12 12 12 12 12 13 13 14 14 17 17 17 16 17 18 19 20 21 22 21 21 21 23 24 23 25
9 9 9 9 10 10 10 10 11 10 11 12 12 12 13 13 13 13 14 14 14 14 15 17 18 18 19 19 18 17 17 17 19 20 20 21 20 20 21 22 23 25 26
9 9 10 10 11 10 11 11 10 11 10 10 11 12 12 11 11 12 12 13 13 14 18 19 23 23 21 19 19 19 18 18 18 18 20 18 19 21 22 23 23 26 27
10 9 11 11 11 11 12 12 13 12 11 11 11 11 11 11 11 11 12 12 13 14 22 22 24 23 22 20 18 19 20 20 19 19 20 21 20 20 23 23 22 23 24
10 10 11 11 11 12 12 12 13 13 14 13 11 11 11 11 11 11 11 12 15 17 21 23 24 23 22 20 19 19 20 21 21 20 22 24 27 23 23 22 22 26 26
10 10 11 12 12 12 13 13 13 13 13 13 12 12 11 10 11 11 11 18 20 23 23 23 26 24 23 21 21 20 20 20 23 27 26 25 28 24 25 24 25 24 25
9 11 11 12 13 13 14 15 16 16 15 14 14 14 12 12 12 13 20 24 23 25 26 24 23 22 21 19 20 22 28 29 29 28 29 30 31 28 27 26 28 29 26
10 11 11 12 12 13 14 15 16 17 18 19 20 23 18 16 20 18 19 22 21 23 23 23 25 23 23 25 25 27 27 28 28 28 28 29 33 28 27 28 28 26 23
10 11 11 12 12 13 14 15 16 17 18 19 23 22 19 20 20 20 20 20 21 21 22 22 19 19 20 20 22 26 29 29 31 31 30 30 29 29 29 30 31 31 27
10 11 11 12 12 13 14 15 16 17 18 19 18 18 21 20 20 20 20 23 21 19 20 19 19 19 22 23 24 23 25 27 26 28 31 32 31 31 34 33 31 31 30
10 11 12 12 13 13 14 15 15 16 16 16 16 17 18 20 21 20 19 20 19 19 19 19 21 22 25 29 29 28 27 29 28 27 30 32 32 32 34 32 31 29 28
11 12 12 13 13 14 15 15 15 15 15 16 17 17 18 20 22 22 19 20 21 22 24 24 23 23 23 25 27 28 29 26 31 31 33 33 33 35 34 32 30 27 27
12 12 13 14 14 14 15 15 15 15 15 16 17 18 18 19 21 19 19 20 21 23 23 26 26 26 26 27 28 28 29 29 30 30 33 31 33 32 32 31 29 27 26

GFSGL_con_lsi_210.txt.gz
Lid_Strength_Index
3 4 4 3 3 4 5 5 6 7 7 8 9 10 10 11 11 12 12 12 13 13 13 13 13 12 12 12 12 12 13 13 15 16 15 15 14 14 13 14 13 13 12
3 3 3 2 2 3 4 4 5 7 7 8 9 10 11 11 11 12 12 12 13 13 12 12 12 12 13 13 13 14 13 14 15 17 16 16 15 14 14 15 14 14 14
3 3 3 3 3 3 3 4 5 6 7 7 8 10 10 11 11 11 11 12 12 12 12 12 13 13 14 14 13 14 14 14 14 16 16 16 16 15 17 16 17 16 15
3 4 3 4 3 3 3 4 4 5 6 7 8 9 9 9 9 10 11 11 12 12 12 12 13 13 14 14 13 14 14 14 14 15 16 17 17 17 16 17 17 16 17
4 4 4 3 3 3 3 3 4 5 5 6 7 9 9 9 9 10 11 11 12 12 12 12 12 12 12 12 13 14 14 15 15 16 17 17 17 17 17 17 17 17 17
5 4 3 3 3 3 4 4 4 4 6 6 8 8 9 8 10 10 10 11 12 13 14 14 13 12 12 12 13 13 14 15 15 15 16 16 16 16 16 17 17 18 18
4 4 3 4 4 4 3 4 5 5 5 6 7 8 8 9 10 10 11 11 12 13 14 14 14 14 14 14 13 13 13 13 15 14 15 16 17 16 16 17 18 18 18
4 3 3 4 4 5 5 5 6 7 6 6 6 7 8 9 9 10 11 12 13 13 14 14 15 15 14 15 15 16 16 15 15 14 15 15 15 15 15 15 16 16 16
4 3 4 5 6 7 7 7 7 7 8 7 7 8 9 10 9 10 11 12 13 14 14 14 14 14 14 14 16 16 16 15 13 13 13 13 14 13 14 15 17 18 19
5 4 5 5 6 7 8 9 9 7 8 8 9 9 9 10 9 10 11 12 13 14 14 13 13 14 13 14 15 16 18 17 15 15 14 14 14 14 14 15 16 18 19
4 5 5 7 7 7 8 7 7 8 9 10 10 10 9 9 10 10 11 12 13 14 14 14 13 13 13 13 15 16 17 17 17 18 18 18 17 16 17 16 16 16 18
5 7 7 7 7 7 7 7 7 8 8 9 10 11 10 10 9 9 10 11 12 13 14 13 13 12 13 13 15 14 14 18 18 19 19 19 19 19 18 17 17 17 17
7 7 6 7 7 8 7 7 7 8 8 9 10 11 11 10 10 9 10 11 11 12 12 12 12 12 13 14 14 14 17 18 19 19 19 19 18 18 19 20 20 19 17
7 7 7 8 8 8 8 7 8 8 9 9 10 10 10 11 10 11 10 11 11 12 12 11 11 12 15 15 14 16 17 18 19 19 19 19 19 20 19 19 19 19 19
7 7 7 7 8 8 8 8 8 8 8 9 9 10 11 11 11 10 11 12 12 12 12 12 14 15 16 17 17 17 18 18 19 19 19 19 19 19 19 20 19 21 20
7 8 8 8 9 9 10 10 8 9 8 9 9 9 9 9 9 10 10 10 11 11 13 14 15 16 17 18 18 18 18 18 18 18 19 18 19 19 18 19 19 20 20
8 8 8 9 10 10 10 11 12 10 9 9 9 9 9 10 9 9 10 10 11 12 14 15 16 16 17 18 18 19 19 18 18 17 18 18 18 18 19 19 19 20 20
8 8 9 10 11 11 11 11 12 12 13 12 10 10 10 10 10 10 10 11 14 14 15 16 17 18 19 19 20 19 19 19 19 18 19 19 19 18 19 19 19 21 21
9 9 12 11 11 11 11 12 12 12 13 13 12 11 10 10 10 10 11 14 17 19 19 20 20 20 20 19 20 20 21 21 20 21 20 20 21 19 20 20 20 23 23
9 11 12 11 12 12 12 12 13 13 13 13 13 12 11 11 13 14 18 19 19 21 21 20 22 21 21 21 22 22 23 23 22 21 21 20 21 20 20 21 22 23 23
10 12 12 12 12 12 13 13 13 13 13 13 13 12 12 13 14 17 19 20 19 21 22 21 22 21 21 22 22 22 21 21 21 20 20 22 25 23 23 22 23 24 24
10 11 11 12 13 13 14 14 14 14 14 14 15 15 16 17 17 19 20 21 22 21 21 20 21 21 21 20 21 22 22 22 23 23 24 25 24 24 25 25 26 26 26
10 11 11 12 13 14 14 15 15 16 16 14 15 16 17 19 19 19 20 23 23 24 24 22 22 23 23 22 20 19 20 21 22 24 25 26 26 25 27 26 27 28 28
10 11 11 12 13 14 15 16 17 18 17 16 16 17 20 21 21 21 22 24 24 25 24 23 22 21 22 22 20 20 21 24 24 24 25 26 26 29 29 28 28 29 29
11 11 12 12 13 14 15 16 17 18 18 19 20 20 22 22 22 22 22 23 23 24 25 24 23 21 21 21 22 24 26 26 26 28 27 27 28 29 29 29 29 29 30
11 12 12 12 13 14 14 15 16 17 18 18 18 18 19 20 20 22 24 24 24 25 24 23 22 21 21 22 24 26 29 29 29 30 28 27 29 29 30 30 30 30 29

GFSGL_con_lsi_213.txt.gz
Lid_Strength_Index
1 1 1 1 0 0 1 1 0 1 2 3 4 5 6 7 8 8 9 10 10 11 11 11 12 12 11 11 10 10 10 10 12 13 13 12 11 12 11 10 11 11 11
1 1 1 1 1 1 1 1 0 1 2 3 5 6 7 8 9 10 11 10 11 12 12 12 12 11 12 11 11 11 11 10 12 14 13 13 12 11 11 12 12 12 12
1 1 1 1 1 1 1 1 0 1 1 2 5 7 7 8 9 10 11 11 11 12 12 12 12 11 12 11 12 11 12 12 13 14 15 14 13 12 13 13 13 13 13
1 1 1 1 1 1 1 1 1 1 2 3 4 6 7 8 8 9 10 11 11 11 11 11 12 12 13 13 13 13 13 13 13 14 15 15 15 14 14 15 16 14 15
2 1 1 1 1 1 1 1 1 1 2 2 4 5 6 7 8 9 10 11 11 11 11 12 12 12 12 12 13 14 14 14 15 16 16 16 16 16 15 15 15 15 15
2 2 1 1 1 1 1 1 1 1 1 2 3 5 6 7 9 9 9 10 10 11 12 12 12 11 12 12 12 13 13 14 14 14 14 14 14 14 13 14 14 15 16
3 2 2 1 1 1 1 1 1 1 1 2 3 3 6 7 8 8 9 9 10 11 12 12 13 13 13 13 14 14 14 14 14 12 13 12 13 13 13 13 14 13 13
2 2 2 1 1 1 1 2 1 1 1 2 3 4 5 7 9 9 9 10 11 11 11 12 13 13 13 14 14 14 14 14 13 12 11 12 12 12 12 12 12 13 13
2 2 1 1 2 2 3 3 2 2 2 2 3 5 7 9 8 10 10 10 12 12 12 12 13 13 13 13 14 15 15 15 13 13 13 13 12 12 12 12 14 14 15
2 1 1 1 1 2 3 5 5 4 4 3 6 6 7 9 8 9 10 11 12 13 13 12 12 13 13 13 14 14 15 14 14 14 13 13 13 13 13 12 12 14 14
2 2 2 3 4 5 5 4 5 5 5 6 7 7 8 8 9 9 9 11 12 13 13 13 12 12 13 13 13 13 13 13 14 14 14 13 12 13 13 12 12 12 14
2 4 4 4 5 5 6 6 5 5 6 7 7 8 8 9 8 8 9 10 11 13 13 12 12 12 12 13 13 14 14 14 14 14 14 14 14 13 13 13 13 13 13
5 5 5 5 5 6 6 6 5 6 5 7 7 8 8 9 9 9 10 10 10 11 11 11 11 11 12 13 13 13 14 13 13 14 14 14 13 13 13 14 14 14 14
6 6 6 6 6 7 6 6 6 6 7 7 8 8 9 9 9 9 10 10 10 11 11 10 11 12 12 12 13 14 13 13 13 14 14 14 14 15 14 14 14 14 14
6 6 7 7 7 6 7 7 6 7 7 7 8 8 9 10 9 9 9 10 10 10 10 11 12 13 13 13 14 15 14 15 15 14 15 15 15 14 14 14 13 14 14
6 7 6 6 7 7 8 8 8 8 8 7 7 8 8 8 8 9 9 9 9 10 10 12 13 13 13 14 15 15 15 15 15 15 14 14 14 14 13 14 13 13 14
6 7 7 7 7 8 8 9 9 9 8 8 8 8 8 8 8 9 9 9 10 10 11 12 12 13 13 13 14 14 15 14 14 14 14 13 13 13 13 13 13 14 14
7 8 7 7 8 8 9 9 9 9 10 10 9 9 9 9 9 9 9 10 11 11 11 12 12 12 13 13 14 14 14 14 13 12 12 12 12 12 13 13 13 14 14
7 7 7 8 8 9 9 9 10 10 10 10 10 10 9 9 9 10 10 11 12 12 12 12 12 12 13 13 13 13 13 12 12 12 12 12 12 12 13 13 13 16 16
7 8 8 8 9 9 10 10 11 10 10 10 11 10 10 10 11 12 12 12 12 13 12 13 13 13 12 12 12 12 12 13 13 12 11 12 12 13 13 13 14 15 15
8 8 8 8 10 10 10 11 11 11 11 11 10 10 10 10 12 12 13 12 12 13 13 12 12 12 11 12 12 12 12 11 12 12 12 13 13 14 14 14 15 16 17
8 9 8 8 9 10 10 10 11 11 11 11 11 12 12 12 12 12 12 13 12 12 11 12 11 12 12 12 12 11 12 12 12 12 13 14 15 15 15 16 17 18 18
8 8 9 9 9 10 10 11 11 11 11 11 11 11 11 11 12 12 12 13 13 13 12 12 12 12 12 12 11 11 12 12 12 13 14 15 16 16 17 17 18 20 20
8 8 9 9 9 10 10 11 12 12 11 11 11 11 11 11 11 12 13 13 13 13 13 13 12 13 13 12 12 12 12 13 14 15 15 16 16 19 18 19 19 20 21
8 9 9 9 10 10 11 11 12 12 12 12 12 12 11 12 12 12 13 13 14 13 14 14 13 14 14 14 14 14 17 18 16 17 17 17 18 19 20 20 21 21 22
9 9 10 9 10 11 11 12 12 12 12 12 12 12 12 12 13 13 14 14 14 14 14 14 14 14 15 15 16 18 20 21 20 20 18 18 19 20 20 22 23 22 23